Regional Weather Roundup
Issued by NWS Raleigh/Durham, NC

Home | Current Version | Previous Version | Text Only | Print | Product List | Glossary On
Versions: 1 2 3 4 5 6 7 8 9 10 11 12 13 14 15 16 17 18 19 20 21 22 23 24 25 26
000
ASUS42 KRAH 131510
RWRRAH
NORTH CAROLINA WEATHER ROUNDUP
NATIONAL WEATHER SERVICE RALEIGH NC
1000 AM EST WED DEC 13 2017

NOTE: "FAIR" INDICATES FEW OR NO CLOUDS BELOW 12,000 FEET WITH NO
SIGNIFICANT WEATHER AND/OR OBSTRUCTIONS TO VISIBILITY.

NCZ001-053-055-056-065-067-131600-
WESTERN NORTH CAROLINA

CITY           SKY/WX    TMP DP  RH WIND       PRES   REMARKS
ASHEVILLE      SUNNY     27   3  35 N9        29.95S WCI  18
JEFFERSON      SUNNY     20  -2  38 W6G16     29.81S WCI  13
MORGANTON      SUNNY     32   0  25 W7        29.99S WCI  26
HICKORY        SUNNY     33   1  25 W10       29.96R WCI  25
RUTHERFORDTON  NOT AVBL
MOUNT AIRY     SUNNY     30  -4  22 SW5       29.95S WCI  26
BOONE          CLOUDY    19  -3  37 W6        29.85R WCI  11
$$

NCZ021-022-025-041-071-084-088-131600-
CENTRAL NORTH CAROLINA

CITY           SKY/WX    TMP DP  RH WIND       PRES   REMARKS
CHARLOTTE      MOSUNNY   36   7  29 SW5       30.00S WCI  32
GREENSBORO     PTSUNNY   31   2  29 W9        29.95F WCI  23
WINSTON-SALEM  SUNNY     30   1  29 W9        29.96F WCI  22
RALEIGH-DURHAM MOSUNNY   32   4  30 W13G21    30.01R WCI  22
FORT BRAGG     SUNNY     37   8  30 NW10      30.02R WCI  29
FAYETTEVILLE   SUNNY     36  11  35 W7        30.02S WCI  30
BURLINGTON     SUNNY     32   2  27 W13G18    29.97S WCI  22
LAURINBURG     SUNNY     37  13  37 NW8       30.04R WCI  31
$$

NCZ011-015-027-028-043-044-047-080-103-131600-
NORTHEASTERN NORTH CAROLINA

CITY           SKY/WX    TMP DP  RH WIND       PRES   REMARKS
ROCKY MT-WILSO SUNNY     33  10  38 W10G20    30.00R WCI  25
GREENVILLE     SUNNY     34  10  37 NW10G17   30.01S WCI  26
WASHINGTON     SUNNY     33  10  37 NW12G20   29.99S WCI  24
ELIZABETH CITY SUNNY     33   8  35 W20G28    29.95S WCI  21
MANTEO         SUNNY     32  10  40 NW20G28   29.95S WCI  20
CAPE HATTERAS  SUNNY     34  13  41 NW17G33   29.96R WCI  23
$$

NCZ078-087-090-091-093-098-101-131600-
SOUTHEASTERN NORTH CAROLINA

CITY           SKY/WX    TMP DP  RH WIND       PRES   REMARKS
LUMBERTON      MOSUNNY   38  11  32 NW6       30.04R WCI  33
GOLDSBORO      SUNNY     36   7  29 W16G24    30.00R WCI  27
KINSTON        SUNNY     36   7  30 W14G21    30.01S WCI  27
KENANSVILLE    SUNNY     36   9  32 NW14      30.02R WCI  27
NEW BERN       SUNNY     34  13  41 NW15G22   30.01R WCI  24
CHERRY POINT   SUNNY     36  11  35 NW21G30   30.00S WCI  25
BEAUFORT       SUNNY     37  13  37 NW21G26   29.99S WCI  26
JACKSONVILLE   MOSUNNY   37  12  35 NW13G21   30.00S WCI  29
WILMINGTON     SUNNY     38  11  32 NW14      30.03R WCI  30
$$





USA.gov is the U.S. government's official web portal to all federal, state and local government web resources and services.